This is the latest recevied weather packets stored in our database for station/object DM4XI-13. If no packets are shown the sender has not sent any weather packets the latest 1 day(s).
| Time | Temp. | Humidity | Pressure | Rain* | Wind** | Luminosity | Snow |
|---|---|---|---|---|---|---|---|
| 1778087385 | 15.56° C | 73% | 1003 hPa | 0 mm | 0 m/s | 14 W/m² | - |
| 1778086957 | 16.11° C | 75% | 1002.9 hPa | 0 mm | 0.45 m/s, 190° | 22 W/m² | - |
| 1778086774 | 16.11° C | 74% | 1003 hPa | 0 mm | 1.34 m/s, 173° | 28 W/m² | - |
| 1778086428 | 16.67° C | 73% | 1002.6 hPa | 0 mm | 0.45 m/s, 255° | 47 W/m² | - |
| 1778086042 | 17.22° C | 67% | 1002.7 hPa | 0 mm | 1.79 m/s, 301° | 30 W/m² | - |
| 1778085981 | 17.22° C | 66% | 1002.6 hPa | 0 mm | 1.79 m/s, 294° | 27 W/m² | - |
| 1778085859 | 17.78° C | 64% | 1002.6 hPa | 0 mm | 1.34 m/s, 303° | 21 W/m² | - |
| 1778085798 | 17.78° C | 63% | 1002.8 hPa | 0 mm | 1.79 m/s, 323° | 18 W/m² | - |
| 1778085737 | 17.78° C | 62% | 1002.7 hPa | 0 mm | 0.89 m/s, 263° | 17 W/m² | - |
| 1778085676 | 17.78° C | 61% | 1002.7 hPa | 0 mm | 1.34 m/s, 292° | 15 W/m² | - |
| 1778085554 | 18.33° C | 60% | 1002.7 hPa | 0 mm | 0.89 m/s, 304° | 14 W/m² | - |
| 1778085127 | 18.89° C | 55% | 1002.5 hPa | 0 mm | 0.45 m/s, 251° | 20 W/m² | - |
| 1778085066 | 18.89° C | 55% | 1002.6 hPa | 0 mm | 0.45 m/s, 259° | 21 W/m² | - |
| 1778085005 | 18.89° C | 54% | 1002.4 hPa | 0 mm | 0.89 m/s, 303° | 21 W/m² | - |
| 1778084761 | 18.89° C | 53% | 1002.5 hPa | 0 mm | 0.89 m/s, 267° | 23 W/m² | - |
| 1778084456 | 18.89° C | 52% | 1002.4 hPa | 0 mm | 0 m/s | 29 W/m² | - |
| 1778084273 | 19.44° C | 51% | 1002.6 hPa | 0 mm | 0.45 m/s, 256° | 35 W/m² | - |
| 1778084152 | 19.44° C | 51% | 1002.5 hPa | 0 mm | 0.45 m/s, 249° | 39 W/m² | - |
| 1778083907 | 19.44° C | 51% | 1002.3 hPa | 0 mm | 0 m/s | 48 W/m² | - |
| 1778083601 | 19.44° C | 49% | 1002.6 hPa | 0 mm | 0.89 m/s, 280° | 60 W/m² | - |
| 1778083479 | 19.44° C | 50% | 1002.5 hPa | 0 mm | 0.45 m/s, 249° | 64 W/m² | - |
| 1778083113 | 20° C | 51% | 1002.5 hPa | 0 mm | 0.45 m/s, 246° | 79 W/m² | - |
| 1778083052 | 20° C | 50% | 1002.5 hPa | 0 mm | 0.45 m/s, 250° | 82 W/m² | - |
| 1778082930 | 20° C | 49% | 1002.5 hPa | 0 mm | 0.45 m/s, 255° | 90 W/m² | - |
| 1778082869 | 20° C | 51% | 1002.3 hPa | 0 mm | 1.34 m/s, 293° | 94 W/m² | - |
* Rain latest hour (hover to see other rain measurements)
** Current wind speed in m/s (hover to see current wind gust speed)